{"data":{"norad_id":57334,"epoch":"2026-09-20T22:05:53.129184Z","epoch_age_seconds":87865,"freshness":"FRESH","line1":"1 57334U 23099G   26263.92075381  .00000306  00000+0  20665-4 0  9990","line2":"2 57334  43.0012 229.9100 0001446 268.2859  91.7827 15.27572416175931","mean_motion":15.27572416,"eccentricity":0.0001446,"inclination_deg":43.0012,"raan_deg":229.91,"arg_perigee_deg":268.2859,"mean_anomaly_deg":91.7827,"bstar":2.0665e-5,"rev_number":17593,"period_min":94.267216723557,"perigee_km":482.07967456468,"apogee_km":484.06393615119,"semimajor_km":6861.2088053579,"source":"CELESTRAK","updated_at":"2026-09-21T09:00:33.596984Z"}}